When you browse on this site, cookies collect data to enhance your experience and personalize the content and advertising you see.
Visit our Privacy Policy to learn more. By continuing to use the site, you agree to this use of cookies and data.
  • In Deutschland
  • Länderverzeichnis
  • Für 7 Tage
  • Wassertemperatur
  • Satellitenkarten
  • Wetterkarte
  • Widgets
  • user-avatar
    Anmelden

    Stündliche Wetter Inhapi

    Heute, 16 Dezember, Sonntag

    Zeit Temperatur Niederschläge Wind Luftdruck Luftfeuchtigkeit
    00:00 +23°C° 0 mm 4 m/S 729 mmHg 75%
    01:00 +22°C° 0 mm 4 m/S 729 mmHg 77%
    02:00 +22°C° 0 mm 4 m/S 729 mmHg 79%
    03:00 +22°C° 0 mm 3 m/S 729 mmHg 81%
    04:00 +22°C° 0 mm 3 m/S 729 mmHg 81%
    05:00 +22°C° 0 mm 3 m/S 729 mmHg 81%
    06:00 +22°C° 0 mm 3 m/S 730 mmHg 81%
    07:00 +24°C° 0 mm 3 m/S 730 mmHg 72%
    08:00 +26°C° 0 mm 4 m/S 730 mmHg 63%
    09:00 +28°C° 0 mm 4 m/S 731 mmHg 54%
    10:00 +30°C° 0 mm 4 m/S 730 mmHg 47%
    11:00 +33°C° 0 mm 4 m/S 730 mmHg 40%
    12:00 +34°C° 0 mm 4 m/S 730 mmHg 33%
    13:00 +35°C° 0 mm 4 m/S 729 mmHg 32%
    14:00 +35°C° 0 mm 4 m/S 729 mmHg 31%
    15:00 +35°C° 0 mm 4 m/S 728 mmHg 30%
    16:00 +34°C° 0 mm 4 m/S 728 mmHg 36%
    17:00 +32°C° 0 mm 5 m/S 728 mmHg 42%
    18:00 +30°C° 0 mm 5 m/S 728 mmHg 48%
    19:00 +29°C° 0 mm 5 m/S 728 mmHg 54%
    20:00 +27°C° 0 mm 5 m/S 729 mmHg 61%
    21:00 +26°C° 0 mm 5 m/S 729 mmHg 67%
    22:00 +26°C° 0 mm 5 m/S 729 mmHg 71%
    23:00 +25°C° 0 mm 4 m/S 729 mmHg 74%

    Morgen, 17 Dezember, Montag

    Zeit Temperatur Niederschläge Wind Luftdruck Luftfeuchtigkeit
    00:00 +24°C° 0 mm 3 m/S 729 mmHg 77%
    01:00 +24°C° 0 mm 3 m/S 728 mmHg 79%
    02:00 +24°C° 0 mm 3 m/S 728 mmHg 80%
    03:00 +24°C° 0 mm 3 m/S 727 mmHg 82%
    04:00 +24°C° 0 mm 3 m/S 728 mmHg 82%
    05:00 +24°C° 0 mm 3 m/S 728 mmHg 82%
    06:00 +25°C° 0 mm 3 m/S 728 mmHg 81%
    07:00 +25°C° 0.1 mm 3 m/S 729 mmHg 78%
    08:00 +26°C° 0.1 mm 3 m/S 729 mmHg 75%
    09:00 +27°C° 0.1 mm 3 m/S 730 mmHg 72%
    10:00 +29°C° 0.4 mm 3 m/S 729 mmHg 66%
    11:00 +30°C° 0.4 mm 4 m/S 729 mmHg 60%
    12:00 +32°C° 0.4 mm 4 m/S 728 mmHg 55%
    13:00 +32°C° 2.5 mm 4 m/S 728 mmHg 57%
    14:00 +30°C° 2.5 mm 5 m/S 727 mmHg 60%
    15:00 +30°C° 2.5 mm 5 m/S 727 mmHg 63%
    16:00 +29°C° 2.8 mm 5 m/S 727 mmHg 69%
    17:00 +27°C° 2.8 mm 5 m/S 727 mmHg 75%
    18:00 +26°C° 2.8 mm 5 m/S 728 mmHg 82%
    19:00 +26°C° 0.8 mm 5 m/S 728 mmHg 83%
    20:00 +25°C° 0.8 mm 4 m/S 729 mmHg 85%
    21:00 +25°C° 0.8 mm 4 m/S 730 mmHg 87%
    22:00 +25°C° 0.3 mm 4 m/S 729 mmHg 87%
    23:00 +25°C° 0.3 mm 3 m/S 729 mmHg 88%

    übermorgen, 18 Dezember, Dienstag

    Zeit Temperatur Niederschläge Wind Luftdruck Luftfeuchtigkeit
    00:00 +25°C° 0.3 mm 3 m/S 729 mmHg 89%
    01:00 +24°C° 0 mm 2 m/S 728 mmHg 90%
    02:00 +24°C° 0 mm 2 m/S 728 mmHg 91%
    03:00 +24°C° 0 mm 2 m/S 728 mmHg 91%
    04:00 +24°C° 0 mm 2 m/S 728 mmHg 91%
    05:00 +24°C° 0 mm 2 m/S 728 mmHg 91%
    06:00 +24°C° 0 mm 2 m/S 728 mmHg 91%
    07:00 +25°C° 0 mm 3 m/S 729 mmHg 84%
    08:00 +27°C° 0 mm 3 m/S 729 mmHg 77%
    09:00 +28°C° 0 mm 3 m/S 730 mmHg 70%
    10:00 +30°C° 0.1 mm 3 m/S 729 mmHg 64%
    11:00 +31°C° 0.1 mm 3 m/S 729 mmHg 58%
    12:00 +33°C° 0.1 mm 3 m/S 728 mmHg 52%
    13:00 +33°C° 0.6 mm 4 m/S 728 mmHg 52%
    14:00 +33°C° 0.6 mm 4 m/S 727 mmHg 53%
    15:00 +33°C° 0.6 mm 5 m/S 727 mmHg 54%
    16:00 +30°C° 0.5 mm 5 m/S 727 mmHg 60%
    17:00 +29°C° 0.5 mm 5 m/S 727 mmHg 65%
    18:00 +28°C° 0.5 mm 4 m/S 727 mmHg 71%
    19:00 +27°C° 0 mm 4 m/S 728 mmHg 74%
    20:00 +27°C° 0 mm 4 m/S 728 mmHg 78%
    21:00 +26°C° 0 mm 4 m/S 729 mmHg 81%
    22:00 +26°C° 0 mm 4 m/S 729 mmHg 83%
    23:00 +25°C° 0 mm 3 m/S 728 mmHg 84%

    19 Dezember, Mittwoch

    Zeit Temperatur Niederschläge Wind Luftdruck Luftfeuchtigkeit
    00:00 +25°C° 0 mm 3 m/S 728 mmHg 86%
    01:00 +24°C° 0 mm 2 m/S 728 mmHg 87%
    02:00 +24°C° 0 mm 2 m/S 727 mmHg 88%
    03:00 +24°C° 0 mm 2 m/S 727 mmHg 89%
    04:00 +24°C° 0 mm 2 m/S 727 mmHg 88%
    05:00 +24°C° 0 mm 2 m/S 728 mmHg 87%
    06:00 +24°C° 0 mm 2 m/S 728 mmHg 86%
    07:00 +26°C° 0 mm 3 m/S 728 mmHg 76%
    08:00 +28°C° 0 mm 3 m/S 729 mmHg 66%
    09:00 +30°C° 0 mm 4 m/S 729 mmHg 56%
    10:00 +32°C° 0 mm 4 m/S 728 mmHg 50%
    11:00 +33°C° 0 mm 4 m/S 728 mmHg 44%
    12:00 +35°C° 0 mm 4 m/S 727 mmHg 37%
    13:00 +35°C° 0 mm 4 m/S 727 mmHg 36%
    14:00 +35°C° 0 mm 4 m/S 726 mmHg 35%
    15:00 +36°C° 0 mm 5 m/S 725 mmHg 34%
    16:00 +34°C° 0 mm 5 m/S 726 mmHg 39%
    17:00 +33°C° 0 mm 5 m/S 726 mmHg 45%
    18:00 +30°C° 0 mm 5 m/S 726 mmHg 51%
    19:00 +29°C° 0 mm 5 m/S 726 mmHg 57%
    20:00 +28°C° 0 mm 5 m/S 727 mmHg 64%
    21:00 +27°C° 0 mm 5 m/S 727 mmHg 71%
    22:00 +26°C° 0 mm 5 m/S 727 mmHg 73%
    23:00 +26°C° 0 mm 4 m/S 727 mmHg 75%

    20 Dezember, Donnerstag

    Zeit Temperatur Niederschläge Wind Luftdruck Luftfeuchtigkeit
    00:00 +26°C° 0 mm 3 m/S 727 mmHg 78%
    01:00 +25°C° 0 mm 3 m/S 726 mmHg 79%
    02:00 +25°C° 0 mm 3 m/S 726 mmHg 80%
    03:00 +25°C° 0 mm 2 m/S 726 mmHg 81%
    04:00 +25°C° 0 mm 2 m/S 726 mmHg 82%
    05:00 +25°C° 0 mm 2 m/S 727 mmHg 82%
    06:00 +24°C° 0 mm 2 m/S 727 mmHg 82%
    07:00 +26°C° 0 mm 2 m/S 728 mmHg 72%
    08:00 +28°C° 0 mm 3 m/S 728 mmHg 63%
    09:00 +30°C° 0 mm 3 m/S 729 mmHg 54%
    10:00 +31°C° 0 mm 3 m/S 728 mmHg 48%
    11:00 +34°C° 0 mm 3 m/S 728 mmHg 42%
    12:00 +35°C° 0 mm 3 m/S 727 mmHg 36%
    13:00 +36°C° 0 mm 3 m/S 727 mmHg 35%
    14:00 +36°C° 0 mm 4 m/S 726 mmHg 33%
    15:00 +36°C° 0 mm 4 m/S 725 mmHg 32%
    16:00 +35°C° 0 mm 4 m/S 726 mmHg 38%
    17:00 +33°C° 0 mm 4 m/S 726 mmHg 43%
    18:00 +32°C° 0 mm 4 m/S 726 mmHg 49%
    19:00 +30°C° 0 mm 5 m/S 727 mmHg 55%
    20:00 +29°C° 0 mm 5 m/S 727 mmHg 61%
    21:00 +27°C° 0 mm 5 m/S 727 mmHg 68%
    22:00 +27°C° 0 mm 4 m/S 727 mmHg 70%
    23:00 +26°C° 0 mm 4 m/S 727 mmHg 73%

    21 Dezember, Freitag

    Zeit Temperatur Niederschläge Wind Luftdruck Luftfeuchtigkeit
    00:00 +26°C° 0 mm 3 m/S 727 mmHg 75%
    01:00 +25°C° 0 mm 3 m/S 726 mmHg 77%
    02:00 +25°C° 0 mm 2 m/S 726 mmHg 79%
    03:00 +24°C° 0 mm 2 m/S 726 mmHg 80%
    04:00 +24°C° 0 mm 2 m/S 726 mmHg 81%
    05:00 +24°C° 0 mm 2 m/S 726 mmHg 81%
    06:00 +24°C° 0 mm 2 m/S 727 mmHg 82%
    07:00 +26°C° 0 mm 2 m/S 727 mmHg 72%
    08:00 +28°C° 0 mm 3 m/S 727 mmHg 63%
    09:00 +30°C° 0 mm 3 m/S 728 mmHg 53%
    10:00 +33°C° 0 mm 3 m/S 727 mmHg 47%
    11:00 +34°C° 0 mm 4 m/S 727 mmHg 41%
    12:00 +36°C° 0 mm 4 m/S 727 mmHg 34%
    13:00 +36°C° 0 mm 4 m/S 726 mmHg 34%
    14:00 +36°C° 0 mm 5 m/S 725 mmHg 34%
    15:00 +36°C° 0 mm 5 m/S 725 mmHg 34%
    16:00 +35°C° 0 mm 5 m/S 725 mmHg 39%
    17:00 +33°C° 0 mm 5 m/S 725 mmHg 44%
    18:00 +32°C° 0 mm 5 m/S 725 mmHg 49%
    19:00 +30°C° 0 mm 5 m/S 726 mmHg 54%
    20:00 +28°C° 0 mm 5 m/S 726 mmHg 59%
    21:00 +27°C° 0 mm 5 m/S 727 mmHg 65%
    22:00 +27°C° 0 mm 5 m/S 727 mmHg 68%
    23:00 +26°C° 0 mm 4 m/S 727 mmHg 71%
    Mehr zeigen